Temp
-10 -9 -9 -9 -9 -9 -9 -9 -10 -10 -10 -10 -9 -9 -9 -9 -8 -8 -8 -8 -8 -9 -9 -8 -9 -10 -10 -10 -10 -9 -9 -8 -8 -9 -9 -9 -8 -8 -8 -8 -7 -7 -7 -7 -7
-10 -10 -11 -11 -11 -11 -11 -10 -10 -10 -10 -10 -10 -10 -9 -9 -9 -9 -9 -8 -8 -9 -9 -9 -9 -9 -9 -10 -10 -10 -9 -9 -8 -9 -8 -9 -9 -8 -8 -7 -7 -7 -7 -6 -6
-12 -12 -13 -13 -13 -13 -13 -13 -12 -12 -11 -11 -11 -10 -10 -10 -9 -10 -9 -9 -9 -9 -9 -9 -9 -9 -9 -9 -10 -10 -9 -8 -8 -8 -8 -8 -8 -8 -8 -8 -7 -7 -6 -6 -6
-14 -14 -15 -15 -15 -15 -15 -14 -14 -13 -12 -12 -11 -11 -10 -10 -10 -10 -10 -9 -9 -9 -9 -10 -9 -9 -9 -9 -9 -9 -9 -9 -8 -8 -8 -8 -8 -8 -8 -8 -7 -7 -6 -6 -6
-15 -15 -16 -16 -16 -16 -16 -16 -16 -15 -14 -13 -12 -11 -11 -10 -10 -10 -10 -10 -9 -9 -10 -10 -10 -9 -10 -9 -9 -9 -9 -9 -8 -8 -8 -8 -8 -8 -8 -8 -8 -7 -7 -7 -6
-15 -16 -16 -17 -17 -18 -18 -17 -17 -16 -15 -14 -13 -12 -11 -11 -11 -10 -10 -10 -10 -9 -9 -10 -10 -9 -9 -10 -9 -9 -9 -9 -9 -9 -8 -8 -8 -8 -8 -8 -8 -7 -7 -7 -6
-16 -17 -18 -18 -18 -19 -19 -18 -17 -16 -16 -15 -14 -13 -12 -12 -11 -11 -11 -10 -10 -9 -9 -10 -10 -10 -10 -10 -9 -9 -9 -9 -9 -9 -8 -8 -8 -8 -8 -8 -7 -7 -7 -7 -7
-17 -18 -18 -19 -19 -19 -19 -18 -18 -17 -16 -15 -14 -14 -13 -12 -12 -11 -11 -11 -10 -10 -10 -10 -10 -10 -10 -9 -10 -9 -9 -9 -9 -9 -8 -8 -9 -8 -8 -8 -8 -7 -7 -7 -7
-18 -18 -18 -19 -19 -19 -19 -19 -18 -17 -16 -16 -15 -15 -13 -13 -12 -12 -11 -11 -11 -10 -10 -10 -11 -10 -9 -9 -9 -9 -9 -9 -9 -9 -8 -8 -8 -8 -8 -8 -8 -8 -8 -8 -8
-18 -18 -18 -18 -19 -19 -19 -19 -18 -17 -17 -16 -16 -15 -14 -13 -13 -12 -12 -11 -11 -10 -10 -10 -10 -10 -10 -9 -10 -10 -9 -9 -9 -9 -8 -8 -9 -8 -8 -8 -8 -8 -8 -8 -8
-17 -18 -19 -19 -19 -19 -19 -18 -18 -17 -17 -17 -16 -15 -14 -14 -13 -13 -12 -12 -11 -11 -10 -10 -10 -10 -10 -10 -10 -9 -9 -9 -9 -9 -8 -9 -9 -9 -9 -9 -9 -9 -9 -9 -8
-17 -17 -18 -18 -19 -18 -18 -18 -18 -18 -17 -17 -16 -15 -14 -14 -13 -13 -12 -12 -12 -11 -10 -10 -10 -10 -10 -10 -10 -9 -9 -9 -9 -9 -8 -8 -9 -9 -9 -9 -9 -9 -9 -9 -9
-17 -17 -18 -18 -18 -18 -18 -18 -18 -17 -17 -16 -16 -15 -15 -14 -13 -13 -13 -12 -12 -11 -11 -11 -11 -10 -10 -10 -10 -10 -9 -9 -9 -9 -9 -9 -9 -10 -9 -9 -9 -9 -9 -9 -9
-16 -17 -17 -17 -18 -18 -18 -17 -17 -17 -17 -16 -15 -15 -14 -14 -13 -13 -13 -12 -11 -11 -11 -10 -11 -11 -11 -10 -10 -10 -10 -10 -10 -9 -9 -10 -8 -10 -9 -9 -9 -9 -10 -10 -10
-17 -17 -17 -17 -17 -18 -17 -17 -17 -17 -16 -16 -15 -15 -14 -14 -14 -13 -13 -12 -12 -12 -11 -11 -11 -11 -11 -11 -11 -10 -10 -10 -10 -10 -9 -10 -9 -10 -10 -10 -10 -10 -10 -10 -11
-17 -17 -17 -17 -17 -17 -17 -17 -17 -16 -16 -16 -16 -15 -14 -14 -13 -13 -13 -12 -12 -12 -11 -11 -11 -11 -11 -11 -11 -11 -11 -10 -10 -10 -10 -10 -10 -10 -10 -10 -10 -11 -11 -11 -11
-16 -16 -17 -17 -17 -17 -17 -17 -17 -17 -16 -16 -15 -14 -14 -14 -14 -13 -13 -13 -12 -12 -12 -12 -12 -12 -12 -11 -11 -11 -11 -11 -10 -10 -10 -10 -10 -11 -11 -11 -11 -12 -12 -12 -12
-16 -16 -16 -17 -17 -17 -17 -16 -16 -16 -15 -15 -15 -15 -15 -14 -14 -14 -14 -13 -13 -12 -12 -12 -12 -12 -12 -12 -11 -11 -11 -11 -11 -11 -11 -11 -11 -11 -12 -12 -12 -12 -12 -12 -13
-15 -16 -16 -16 -16 -16 -16 -16 -16 -16 -15 -15 -15 -14 -14 -14 -14 -14 -14 -13 -13 -13 -12 -12 -12 -12 -12 -12 -11 -11 -11 -11 -11 -11 -11 -11 -12 -12 -12 -12 -12 -13 -13 -13 -13
-15 -15 -15 -16 -16 -16 -16 -16 -16 -15 -15 -15 -14 -14 -14 -14 -14 -14 -14 -13 -13 -13 -12 -12 -12 -12 -12 -12 -12 -12 -12 -12 -12 -12 -12 -12 -12 -12 -13 -13 -13 -13 -13 -13 -13
-15 -15 -15 -15 -15 -16 -16 -16 -15 -15 -15 -15 -14 -14 -14 -14 -13 -13 -13 -13 -13 -12 -12 -12 -12 -12 -12 -12 -12 -12 -12 -12 -12 -12 -12 -12 -13 -13 -13 -13 -13 -13 -14 -14 -14
-14 -15 -15 -15 -15 -15 -15 -15 -15 -15 -15 -15 -15 -14 -14 -14 -14 -13 -13 -13 -13 -13 -13 -12 -12 -12 -12 -12 -12 -12 -13 -13 -13 -13 -13 -13 -13 -13 -14 -14 -14 -14 -14 -14 -14
-15 -14 -14 -15 -15 -15 -15 -15 -15 -15 -15 -15 -14 -14 -14 -14 -13 -13 -13 -13 -13 -13 -12 -13 -13 -13 -13 -13 -13 -13 -13 -13 -13 -13 -13 -14 -14 -14 -14 -14 -14 -14 -14 -14 -15
-14 -14 -14 -14 -15 -15 -15 -15 -15 -14 -14 -14 -14 -14 -14 -13 -13 -13 -13 -13 -13 -13 -13 -13 -13 -13 -13 -13 -13 -13 -13 -14 -14 -14 -14 -14 -15 -15 -14 -15 -15 -15 -15 -15 -15
-14 -14 -14 -14 -15 -15 -15 -15 -15 -15 -14 -14 -14 -14 -14 -13 -13 -13 -13 -13 -13 -13 -13 -13 -13 -13 -13 -14 -14 -14 -14 -14 -14 -14 -14 -15 -15 -15 -15 -15 -15 -16 -16 -16 -16
-14 -15 -15 -15 -15 -15 -15 -15 -15 -15 -14 -14 -14 -14 -14 -14 -14 -14 -14 -14 -14 -14 -14 -14 -14 -14 -14 -14 -14 -14 -15 -15 -15 -15 -15 -15 -15 -15 -16 -16 -17 -17 -17 -17 -17
-15 -15 -15 -15 -15 -15 -15 -14 -15 -15 -14 -14 -14 -14 -14 -14 -14 -14 -14 -14 -14 -14 -14 -14 -14 -14 -14 -15 -15 -14 -15 -15 -15 -15 -16 -16 -16 -16 -16 -17 -17 -18 -17 -18 -18
Height
5774 5772 5771 5771 5772 5774 5777 5780 5784 5788 5794 5801 5808 5814 5820 5826 5832 5838 5845 5851 5855 5859 5864 5867 5871 5874 5876 5878 5879 5881 5886 5887 5888 5887 5887 5887 5887 5887 5887 5886 5886 5887 5888 5889 5889
5760 5757 5755 5753 5753 5755 5758 5761 5768 5774 5781 5789 5797 5804 5811 5818 5826 5833 5839 5844 5850 5855 5860 5864 5867 5869 5872 5874 5876 5877 5882 5885 5885 5886 5885 5886 5885 5884 5884 5883 5883 5884 5884 5884 5885
5746 5742 5739 5737 5737 5738 5740 5744 5750 5757 5767 5776 5786 5795 5802 5810 5819 5827 5832 5838 5844 5850 5856 5860 5863 5865 5868 5871 5873 5874 5878 5881 5881 5882 5883 5883 5882 5881 5880 5880 5879 5879 5879 5879 5880
5733 5728 5724 5722 5722 5722 5725 5729 5735 5742 5752 5763 5774 5785 5793 5802 5813 5818 5826 5832 5839 5845 5852 5856 5860 5862 5865 5868 5870 5872 5874 5876 5876 5877 5879 5879 5879 5878 5878 5876 5875 5876 5876 5875 5875
5720 5714 5710 5708 5708 5708 5711 5716 5723 5730 5739 5751 5763 5774 5785 5796 5804 5812 5820 5827 5834 5840 5845 5851 5855 5859 5861 5864 5867 5869 5871 5872 5873 5873 5874 5875 5876 5875 5874 5873 5872 5872 5871 5871 5871
5708 5701 5695 5693 5693 5694 5699 5705 5713 5721 5730 5741 5753 5765 5778 5790 5797 5806 5814 5822 5829 5834 5841 5848 5852 5855 5858 5861 5864 5866 5867 5869 5871 5871 5870 5871 5872 5871 5869 5869 5869 5868 5867 5866 5865
5696 5688 5683 5681 5681 5685 5691 5697 5705 5714 5723 5734 5746 5759 5772 5782 5791 5800 5809 5817 5824 5830 5837 5843 5848 5852 5855 5857 5859 5861 5863 5865 5866 5866 5867 5868 5869 5864 5865 5865 5865 5865 5863 5862 5861
5688 5680 5675 5673 5675 5679 5685 5692 5700 5708 5718 5729 5741 5754 5766 5777 5787 5796 5804 5813 5819 5826 5833 5839 5844 5847 5850 5854 5856 5858 5860 5862 5862 5861 5863 5863 5866 5860 5860 5860 5860 5860 5859 5857 5856
5683 5675 5671 5671 5672 5676 5683 5690 5697 5706 5716 5727 5739 5752 5762 5774 5783 5791 5800 5809 5815 5822 5829 5835 5839 5843 5848 5849 5852 5854 5855 5856 5857 5857 5857 5858 5860 5856 5856 5855 5855 5854 5853 5852 5850
5683 5676 5671 5669 5672 5677 5683 5690 5698 5707 5717 5729 5740 5752 5763 5772 5780 5789 5797 5805 5812 5819 5825 5831 5835 5839 5842 5845 5850 5850 5850 5851 5852 5852 5852 5853 5855 5851 5851 5851 5849 5848 5847 5846 5844
5686 5680 5676 5674 5676 5681 5686 5693 5702 5712 5723 5733 5741 5751 5761 5771 5779 5788 5796 5803 5809 5816 5822 5826 5831 5836 5841 5840 5843 5846 5846 5847 5847 5846 5847 5847 5851 5848 5845 5845 5843 5842 5841 5840 5838
5693 5687 5684 5682 5683 5686 5691 5697 5707 5716 5726 5735 5743 5754 5763 5771 5780 5788 5795 5802 5807 5813 5819 5824 5828 5832 5835 5837 5839 5842 5841 5842 5842 5842 5842 5843 5846 5845 5841 5840 5838 5837 5835 5833 5832
5702 5698 5694 5692 5693 5696 5701 5708 5716 5723 5732 5740 5748 5756 5765 5773 5780 5787 5794 5800 5805 5811 5816 5822 5826 5828 5830 5832 5834 5835 5836 5837 5837 5837 5837 5837 5840 5840 5836 5834 5833 5831 5829 5827 5825
5711 5709 5706 5705 5707 5709 5714 5719 5725 5732 5739 5746 5752 5759 5767 5773 5781 5786 5792 5799 5804 5808 5813 5817 5820 5823 5826 5828 5830 5831 5832 5832 5832 5832 5832 5833 5830 5835 5830 5828 5826 5824 5822 5820 5818
5720 5718 5717 5717 5718 5721 5725 5729 5735 5740 5745 5751 5756 5762 5768 5775 5781 5787 5792 5796 5800 5805 5811 5815 5817 5819 5822 5824 5825 5827 5827 5827 5827 5826 5826 5828 5823 5827 5825 5822 5820 5817 5816 5813 5810
5728 5727 5727 5727 5728 5731 5734 5738 5742 5748 5750 5754 5759 5764 5771 5775 5781 5786 5790 5795 5798 5803 5806 5810 5813 5816 5818 5820 5821 5821 5822 5821 5821 5822 5821 5821 5820 5818 5817 5813 5813 5811 5809 5807 5805
5734 5734 5733 5733 5736 5738 5741 5744 5748 5751 5754 5759 5763 5767 5770 5776 5781 5786 5790 5793 5797 5801 5804 5808 5810 5812 5814 5815 5816 5816 5817 5816 5816 5816 5816 5814 5813 5812 5809 5808 5806 5804 5803 5801 5798
5739 5738 5739 5739 5741 5743 5746 5750 5753 5755 5758 5762 5766 5769 5773 5777 5782 5786 5789 5792 5795 5799 5802 5804 5808 5809 5811 5811 5812 5812 5813 5812 5809 5810 5809 5808 5806 5805 5803 5801 5799 5797 5795 5792 5790
5741 5741 5742 5744 5745 5747 5751 5753 5755 5758 5762 5766 5769 5773 5776 5780 5783 5786 5788 5791 5794 5797 5800 5802 5804 5806 5807 5807 5808 5808 5806 5806 5804 5803 5802 5802 5801 5798 5796 5794 5792 5790 5788 5784 5783
5743 5744 5745 5745 5748 5751 5754 5756 5759 5762 5765 5768 5771 5774 5777 5780 5783 5785 5787 5790 5792 5795 5797 5799 5800 5801 5802 5802 5802 5801 5802 5801 5799 5796 5796 5795 5793 5791 5790 5787 5785 5782 5780 5778 5774
5745 5746 5748 5750 5752 5754 5756 5758 5761 5764 5767 5770 5773 5775 5777 5780 5782 5784 5786 5789 5790 5792 5793 5794 5796 5798 5797 5797 5797 5797 5796 5795 5793 5792 5789 5788 5788 5785 5782 5780 5778 5775 5772 5769 5764
5747 5748 5749 5751 5755 5756 5759 5762 5763 5765 5767 5770 5772 5775 5777 5779 5780 5782 5783 5785 5787 5788 5790 5791 5792 5793 5793 5792 5792 5791 5790 5789 5787 5786 5783 5781 5781 5778 5774 5771 5769 5766 5762 5757 5752
5748 5749 5750 5752 5754 5757 5760 5762 5764 5766 5768 5770 5771 5773 5775 5776 5779 5780 5781 5782 5784 5785 5786 5786 5787 5787 5787 5788 5787 5785 5784 5782 5780 5779 5778 5774 5774 5768 5765 5762 5758 5754 5749 5744 5740
5747 5749 5750 5752 5754 5756 5759 5761 5763 5764 5766 5767 5769 5770 5772 5773 5775 5777 5777 5779 5780 5781 5781 5782 5782 5782 5782 5782 5781 5780 5778 5776 5774 5772 5770 5768 5764 5758 5754 5749 5745 5740 5736 5731 5726
5745 5747 5749 5751 5753 5755 5757 5759 5760 5762 5763 5764 5766 5767 5769 5771 5772 5773 5774 5776 5776 5777 5777 5778 5778 5777 5776 5776 5775 5773 5771 5769 5767 5764 5760 5758 5754 5749 5744 5740 5735 5729 5724 5720 5715
5742 5745 5747 5749 5751 5753 5755 5756 5758 5759 5761 5762 5764 5765 5767 5768 5769 5770 5771 5771 5772 5772 5772 5772 5772 5771 5770 5769 5767 5766 5764 5760 5757 5753 5750 5746 5743 5738 5734 5729 5724 5720 5716 5711 5706
5738 5741 5744 5747 5749 5751 5752 5754 5756 5757 5759 5760 5761 5762 5763 5765 5765 5766 5766 5767 5768 5768 5767 5767 5765 5764 5764 5762 5759 5759 5755 5751 5747 5744 5741 5737 5733 5729 5724 5719 5714 5711 5706 5700 5694
Wind_Speed
46 49 51 52 53 55 56 56 56 56 53 51 49 48 45 45 46 44 40 39 38 37 37 35 33 33 32 30 29 27 22 20 19 16 16 16 18 19 21 21 21 20 18 15 13
50 53 55 57 59 62 63 63 62 60 58 56 52 50 47 44 46 45 42 40 39 38 37 35 34 32 31 31 29 27 23 20 21 18 18 17 19 21 22 22 21 19 18 14 12
51 51 50 51 52 53 55 57 61 62 62 59 56 52 49 46 45 45 45 42 40 39 38 35 34 32 29 29 29 27 24 21 22 19 18 18 18 20 22 22 21 19 18 16 14
47 46 44 44 46 50 51 53 51 55 58 60 57 54 51 48 45 47 46 44 41 40 38 37 34 31 34 30 27 27 24 22 23 21 18 18 18 19 21 22 22 19 19 18 18
42 42 44 45 45 45 48 50 48 47 52 54 56 54 52 49 45 47 46 44 41 40 40 37 35 32 31 31 26 25 25 24 23 24 23 20 18 19 20 22 20 20 20 20 20
40 41 40 39 39 40 40 40 42 43 47 50 54 54 52 49 47 46 46 44 41 41 39 36 36 36 32 26 26 25 25 24 22 23 24 21 17 19 22 21 22 21 21 22 22
36 32 32 34 33 30 32 34 37 41 44 49 52 54 51 49 47 44 45 43 41 41 38 36 32 35 31 32 32 29 24 22 22 23 22 20 16 24 23 21 22 22 23 24 25
26 24 23 20 22 27 29 31 36 37 43 46 49 50 48 48 45 43 44 43 41 39 36 35 33 35 28 30 26 21 23 21 21 25 22 20 14 25 24 24 25 25 26 27 28
19 13 9 10 17 26 27 28 32 33 41 41 45 46 47 45 44 42 42 41 40 38 35 34 32 30 33 34 35 28 23 23 23 24 24 21 15 25 26 25 26 26 28 29 30
18 11 4 5 15 23 23 24 27 32 37 40 42 43 42 42 41 40 40 39 38 36 34 33 32 31 29 30 25 24 26 23 23 25 24 21 17 25 27 27 27 28 30 31 32
18 13 9 12 15 18 20 23 29 34 36 39 40 40 40 39 38 38 38 37 36 34 33 32 28 26 23 25 25 27 29 26 24 26 25 23 18 22 27 26 28 30 32 33 35
18 15 15 17 21 25 30 34 36 38 38 38 37 37 37 36 34 35 35 35 34 32 31 32 29 28 29 29 28 29 28 26 26 27 28 24 19 20 25 28 30 31 31 34 34
18 16 19 24 28 31 34 36 36 36 36 35 34 35 34 33 34 34 34 34 32 30 28 28 28 28 28 27 27 27 27 27 27 26 27 25 21 19 26 30 31 33 33 34 34
19 18 20 26 30 32 33 33 33 33 32 32 33 33 33 31 31 34 33 33 30 27 26 28 26 24 24 25 25 25 25 25 26 26 26 25 29 20 29 32 32 33 33 32 31
18 20 22 24 28 28 28 29 28 28 29 30 30 30 29 32 31 29 30 29 27 25 23 24 22 22 22 20 20 20 22 24 25 27 28 24 32 25 27 30 31 31 30 30 30
16 17 19 21 24 24 25 25 25 18 19 28 27 29 31 28 29 32 26 26 23 22 22 22 22 21 21 22 22 23 24 26 27 28 30 28 30 30 27 29 26 26 27 28 29
11 12 13 22 21 22 22 22 20 18 18 25 25 24 37 33 28 26 24 21 19 18 18 19 20 20 21 22 23 24 25 27 30 29 30 29 29 27 26 26 28 26 26 28 31
9 9 11 20 20 21 21 19 15 16 13 20 21 20 19 19 21 20 17 16 15 17 17 18 18 18 19 21 23 25 26 28 32 30 29 28 29 28 28 27 28 29 30 32 33
9 12 17 19 21 22 21 14 14 13 17 18 17 17 18 19 17 15 15 15 15 15 16 16 17 18 20 22 24 25 26 27 29 30 30 28 28 29 29 29 31 32 33 36 37
9 12 18 22 23 23 18 16 15 13 14 14 15 16 16 16 15 14 14 14 14 15 16 16 18 19 21 22 23 25 25 25 27 30 30 30 30 30 31 32 33 35 37 38 40
8 10 13 17 19 22 19 19 17 16 14 14 14 14 14 13 13 13 13 14 15 16 17 18 19 19 22 22 23 24 25 26 28 30 32 32 31 32 32 34 36 38 39 41 43
6 8 11 14 16 17 16 15 14 13 13 13 14 13 13 13 13 14 15 16 16 17 19 20 20 20 22 23 24 24 25 26 28 29 31 32 33 33 36 38 39 40 42 45 48
6 7 9 12 14 14 15 15 13 11 10 10 9 10 11 11 12 13 15 16 16 17 18 19 19 19 20 22 22 24 25 27 28 29 30 34 34 37 40 41 43 45 48 50 52
12 9 10 12 14 14 14 14 13 12 10 9 9 10 11 12 12 12 14 14 15 16 16 17 18 19 21 21 21 23 25 28 30 32 34 34 37 41 44 46 48 49 50 51 51
16 13 13 13 13 14 13 11 11 11 9 9 10 10 10 10 11 12 12 13 14 15 16 16 17 19 21 22 24 26 29 31 33 36 39 39 41 41 43 45 46 47 48 49 49
17 16 15 14 14 13 12 12 12 10 9 9 9 9 9 9 10 11 11 12 14 15 17 18 19 22 24 27 29 30 32 35 38 39 41 41 40 40 41 42 41 43 44 45 47
18 17 15 14 12 13 12 10 9 9 9 9 9 9 10 10 11 12 14 15 17 19 21 23 25 27 27 30 34 35 34 36 37 37 37 36 38 38 39 40 40 42 46 50 53
Wind_Direction
282 280 276 270 264 260 256 250 244 242 237 234 231 229 229 224 222 225 223 222 221 223 227 225 226 229 231 236 241 247 243 243 243 249 259 267 271 268 266 269 272 273 273 274 280
283 279 274 268 263 258 252 246 241 237 235 231 227 226 227 225 221 222 220 220 220 221 225 231 227 232 234 235 240 245 246 247 252 255 258 262 268 273 275 276 275 277 277 280 285
285 280 276 271 265 259 254 249 247 239 231 228 224 224 224 224 220 217 218 219 218 219 222 230 234 233 236 238 239 243 252 254 255 253 251 257 263 272 278 281 281 281 286 289 294
289 284 276 269 262 256 251 247 243 237 234 225 221 220 221 221 217 215 215 217 217 219 217 226 231 233 233 238 240 244 249 254 262 266 267 269 273 278 279 278 278 280 281 286 291
292 284 275 270 266 258 250 246 238 232 224 223 216 215 216 217 214 213 213 214 216 217 217 219 226 236 234 239 240 246 246 247 258 270 272 271 272 277 275 269 274 275 277 281 287
295 289 282 271 261 254 245 239 231 224 217 210 208 208 211 211 211 210 211 211 212 217 216 219 223 230 242 231 244 249 249 254 255 261 268 275 281 275 264 268 273 276 279 284 287
306 291 275 269 262 244 222 216 217 217 210 202 203 203 205 205 206 207 209 209 211 216 215 216 226 229 235 241 246 256 252 255 260 262 265 274 281 269 270 270 271 274 277 280 282
314 292 280 260 236 216 202 207 208 209 201 199 197 199 199 200 202 204 207 207 209 215 217 215 224 233 230 245 239 254 261 259 261 265 271 272 262 272 273 271 272 273 276 277 280
329 308 275 253 221 196 193 200 201 200 193 193 190 194 194 196 198 201 204 206 207 212 214 214 223 223 230 240 238 255 267 263 261 267 270 272 264 266 272 273 274 277 277 279 284
4 4 1 217 188 182 183 190 189 188 182 181 183 188 189 192 194 197 200 204 206 210 213 215 223 226 236 239 251 256 261 266 267 266 272 272 264 267 270 276 279 279 280 285 286
18 39 79 116 141 153 157 160 164 165 168 175 175 183 184 188 192 194 198 202 206 208 213 217 218 221 237 242 253 261 266 266 267 268 267 271 273 270 277 279 281 281 282 283 283
32 58 92 119 132 141 146 148 151 155 164 169 172 176 181 184 188 192 197 201 204 207 214 221 227 234 241 246 250 253 261 265 264 268 271 273 271 267 272 276 277 279 282 282 284
54 72 96 111 122 129 134 139 147 153 162 164 168 173 175 182 186 189 196 200 203 205 212 221 225 231 240 246 252 256 259 264 270 272 275 275 270 276 276 277 280 283 282 283 284
66 81 99 111 118 125 131 139 146 153 159 161 168 170 176 181 187 192 196 198 201 203 210 221 225 232 240 246 251 256 261 266 269 272 275 278 279 279 280 281 281 281 283 284 283
75 89 101 113 120 125 133 139 147 153 159 164 166 171 177 185 187 192 197 197 197 201 212 223 228 231 238 247 253 258 262 264 268 272 276 285 285 291 281 280 281 282 283 282 282
86 98 109 120 121 130 135 142 144 155 165 163 169 177 179 180 188 192 186 194 196 202 215 223 229 234 241 247 256 260 263 267 272 277 280 286 286 290 288 287 284 284 283 284 284
100 111 120 127 134 135 140 142 150 159 165 167 176 187 191 187 188 193 195 198 202 211 221 228 231 236 244 250 256 263 270 276 277 280 286 288 287 288 288 286 287 286 283 281 279
142 136 135 136 143 140 134 143 152 157 167 174 179 191 191 188 193 192 194 199 204 212 218 225 231 239 250 256 262 268 273 276 281 285 285 286 286 289 288 288 288 287 286 285 284
178 173 154 151 148 143 143 144 147 157 158 172 179 184 188 190 190 195 201 207 212 219 229 237 243 249 255 261 266 270 272 276 279 281 283 285 288 288 291 291 289 289 288 287 290
160 171 168 160 157 152 148 143 144 152 160 168 174 182 187 190 195 201 207 214 224 232 240 246 252 256 261 265 268 270 274 277 280 283 286 288 290 291 291 291 291 290 290 293 294
159 167 175 174 169 163 155 150 152 154 156 163 175 184 192 197 203 210 218 227 234 241 248 253 257 260 264 268 272 276 279 280 282 284 286 287 287 290 291 291 291 292 294 293 292
134 171 188 193 185 179 172 163 167 171 179 185 190 198 206 212 220 227 236 241 246 252 258 263 267 270 271 273 275 277 279 280 281 283 285 290 290 294 292 292 293 294 293 291 291
179 176 177 181 188 193 199 206 208 207 207 211 216 223 231 240 243 248 254 258 262 265 268 270 274 274 274 274 275 277 279 280 283 286 290 289 296 293 292 294 295 294 293 294 294
217 208 190 173 173 183 191 195 200 211 220 224 230 233 235 238 242 245 252 257 261 264 266 268 269 271 274 277 278 280 283 285 287 290 290 294 292 294 296 296 295 295 294 294 295
224 207 197 189 188 191 197 204 216 226 233 234 237 241 242 245 249 251 254 256 258 261 264 268 272 275 278 281 282 284 288 290 292 293 293 293 293 293 292 292 293 294 295 296 299
211 207 204 199 201 205 207 209 215 220 223 226 231 234 239 241 245 251 254 259 263 267 270 273 276 278 282 286 287 290 294 293 294 293 293 294 294 293 293 294 295 296 299 302 302
204 204 201 196 197 201 204 207 210 220 227 234 239 244 249 254 259 263 267 269 271 275 278 282 284 285 287 289 291 294 292 292 291 292 292 294 295 296 296 297 299 303 304 304 302